STARLINK-30426, 57848

Orbit data source: Space-Track

STARLINK-30426, 57848 is a payload satellite owned by SpaceX/Seattle (US) in LEO that was launched on Tue, 12 Sep 2023 UTC via an FALCON 9 launch vehicle from the Air Force Western Test Range (AFWTR). Payload-class satellites include a variety of spacecraft equipped with specific instruments for various scientific and technological missions. These include communications satellites like Starlink; space stations such as the ISS; scientific satellites like the Hubble; Earth observation satellites from companies like Planet Labs, Umbra, and HawkEye 360; GPS; miniature CubeSats for education and research; and military/defense satellites.

Loading next visibility...
Identifier
57848, 2023-141J
Orbit
LEO
Country
Flag of USUS
Related business
Manufacturer
SpaceX/Seattle
Mission
Operational Commercial Communications
Bus & Motor
STARLINK V2M, Unknown motor
Mass
730 kg wet, ~700 kg dry
Launch date (UTC)
2023-09-12 (3 years ago)
Launch vehicle
FALCON 9
Launch site
Air Force Western Test Range (AFWTR)
Object type
Payload
Rocket body
Debris
Shape & HBR
Box + 2 Pan, 17.7 m
Radar Cross Section
33.884 m², Large (>1 m²)

Expand to show TLE details & history
Last TLE update: 2 days ago

TLE from 2 days ago
0 STARLINK-30426
1 57848U 23141J   26171.36151242  .00000490  00000-0  28688-4 0  9993
2 57848  53.1598 167.2553 0001334  87.1039 273.0115 15.30195051156048
Epoch: 2026-06-20T08:40Z
TLE epoch observation values (Epoch: 2026-06-20T08:40:34.673Z)
Latitude
0.00005°
Longitude
128.53363°
Altitude
476.082 km
Speed
7.629 km/s
True Right ascension
11h 09m 01s
True Declination
0° 00' 00"
Sunlit
Object was in daylight at epoch
Visualization orbit readout
Latitude
Unknown
Longitude
Unknown
Altitude
Unknown
Speed
Unknown
Apparent Right ascension
Unknown
Apparent Declination
Unknown
Sunlit
N/A
Visualization observer readout
Local Sidereal Time
21:32:26
Azimuth
Unknown
Elevation
Unknown
Doppler factor
Unknown
Orbital elements
Apogee altitude
476.401 km
Perigee altitude
474.572 km
Semi-major axis
6,853.623 km
Eccentricity
0.00013
Inclination
53.1598°
RAAN
167.2553°
Arg. of periapsis
87.1039°
True anomaly
272.99623°
Mean anomaly
273.0115°
Eccentric anomaly
273.00387°
Mean motion
3.82528 °/min
Orbital period
94.11 mins
BSTAR
0.000028688
Loading maneuver chart data...
Computing Atmospheric mass density...
Loading historical data...
Loading historical data...
Loading historical data...
Loading historical data...
Loading historical data...
Loading historical data...
Loading historical data...

Documentation

Showing up to 5 results
|